STARLINK-34846 (66972 NORAD) Tracking and Keplerian Element Data

This shows tracking and keplerian element data for the satellite.

Feedback or suggestion? Click here.




ElementValue
Catalog66972
NameSTARLINK-34846
Epoch Orbit303
Epoch Day354.25003472
Epoch Year2025
RAAN121.1218
Inclination43.0015
Eccentricity0.0001753
Argument of Perigee272.3772
Mean Anonmoly109.5978
Mean Motion15.81183933
Decay Rate-0.01379379
L11 66972U 25288P 25354.25003472 -.01379379 00000+0 -76368-2 0 9999
L22 66972 43.0015 121.1218 0001753 272.3772 109.5978 15.81183933 3034



Live tracking and technical data element details for STARLINK-34846 (NORAD 66972). STARLINK-34846 can be tracked NOW for your location showing map with azimuth and elevation plus other details from your city location.







IsCatalogInMostPopularTable: catalog: 66972, numindb: 9
Update: records affected: 1



GetName: 66972 STARLINK-34846

Hit Count: updated at: Tue, 10 Feb 2026 01:53:35 GMT